Location: Bazugues
(43.4465°N, 0.3432°E)
Time: 06:04:03
(UTC+00:00)

BREEZE-M DEB (TANK) - Pass Details

Date: 12 January 2026
Orbit: 607 x 17105 km, 49.5° (Epoch: 10 February)

Event Time Altitude Azimuth Distance (km) Brightness Sun altitude
Rises 18:43:29 0° 281° (W) 3,926 8.4 -21.1°
Reaches altitude 10° 18:46:45 10° 290° (WNW) 2,358 6.9 -21.6°
Maximum altitude 18:50:50 38° 1° (N) 948 3.9 -22.4°
Enters shadow 18:51:00 37° 7° (N) 948 3.8 -22.4°
